Location: Riverside Cemetery
(38.3047°N, 99.7773°W)
Time: 06:52:31
(UTC+00:00)

Cosmos 1898 Rocket - Pass Details

Date: 19 September 2020
Orbit: 753 x 784 km, 74.0° (Epoch: 22 October)

Event Time Altitude Azimuth Distance (km) Brightness Sun altitude
Rises 11:31:37 0° 338° (NNW) 3,239 6.6 -11.2°
Reaches altitude 10° 11:34:00 10° 336° (NNW) 2,313 5.8 -10.7°
Maximum altitude 11:39:12 66° 255° (WSW) 840 3.5 -9.7°
Drops below altitude 10° 11:44:26 10° 173° (S) 2,318 6.0 -8.7°
Sets 11:46:49 0° 171° (S) 3,245 6.8 -8.2°
